Weather in Arbagar

Russia / Zabaykalsky Krai     51°56′38″N   116°16′49″E
temp.,
°C
wind,
m/s
gust,
m/s
humid.,
%
clouds,
%
prec.,
mm/h
press.,
hPa
HPBL,
m
29 july, thu
thu2900:00+15n11895 0.2 100211
03:00+14nnw119433 1.1 100211
06:00+13nnw11948 0.1 100212
09:00+17n118544 0.1 1002322
12:00+21nnw2272100 0.4 1001824
15:00+21w227293 1.3 1000825
18:00+22nw236413 0.3 1000849
21:00+17nnw22845 0.7 100114
30 july, fri
fri3000:00+15n23914 0.0 100228
03:00+13nne35955 0.0 1003105
06:00+13n22956 0.0 100420
09:00+17nne498266 0.0 1004585
12:00+20ene687385 0.3 10041270
15:00+21ne57756 1.8 1003753
18:00+23ene48615 0.4 10031212
21:00+17ne414706 0.4 1005333
31 july, sat
sat3100:00+13nne31167100 0.0 1008240
03:00+11n3474100 0.0 100957
06:00+10n227961 0.0 101028
09:00+15nne48641 0.0 1011430
12:00+20ne58480 0.0 10111450
15:00+22ne47420 0.0 10101842
18:00+23e35493 0.0 10091527
21:00+17ssw005817 0.0 101111
1 august, sun
sun100:00+14ene22682 0.0 101311
03:00+11ne227125 0.0 101411
06:00+12ene1166100 0.0 101427
09:00+13ne126695 0.0 1015147
12:00+18ene335116 0.0 1014651
15:00+21ne33480 0.0 10121191
18:00+21ne12510 0.0 1012783
21:00+16se11710 0.0 101311
2 august, mon
mon200:00+13e22790 0.0 101513
03:00+11n11800 0.0 101510
06:00+10e11800 0.0 101610
09:00+16s01620 0.0 1015253
12:00+21sw11440 0.0 1013769
15:00+23w23450 0.0 10111148
18:00+23ssw23515 0.0 1010768
21:00+18s226710 0.0 101015